TimeEST,TemperatureF,Dew PointF,Humidity,Sea Level PressureIn,VisibilityMPH,Wind Direction,Wind SpeedMPH,Gust SpeedMPH,PrecipitationIn,Events,Conditions,WindDirDegrees,DateUTC
12:12 AM,51.1,50.0,96,29.97,10.0,SSW,10.4,19.6,N/A,,Overcast,210,2013-12-06 05:12:00
12:35 AM,51.1,48.9,92,29.97,2.0,SSW,12.7,19.6,N/A,,Overcast,210,2013-12-06 05:35:00
12:40 AM,51.1,50.0,96,29.96,0.8,SSW,9.2,19.6,N/A,,Overcast,210,2013-12-06 05:40:00
12:52 AM,51.1,50.0,96,29.97,0.5,SSW,10.4,18.4,N/A,Fog,Fog,210,2013-12-06 05:52:00
1:31 AM,51.1,50.0,96,29.97,0.2,SW,11.5,17.3,N/A,Fog,Fog,220,2013-12-06 06:31:00
1:52 AM,51.1,50.0,96,29.96,0.5,SSW,8.1,-,N/A,Fog,Fog,210,2013-12-06 06:52:00
2:52 AM,52.0,51.1,97,29.96,0.5,SW,9.2,18.4,N/A,Fog,Fog,220,2013-12-06 07:52:00
3:52 AM,51.1,50.0,96,29.94,0.5,SW,11.5,16.1,N/A,Fog,Fog,220,2013-12-06 08:52:00
4:52 AM,51.1,50.0,96,29.93,0.5,SW,9.2,20.7,N/A,Fog,Fog,220,2013-12-06 09:52:00
5:52 AM,51.1,50.0,96,29.94,1.0,SW,9.2,23.0,N/A,,Mist,220,2013-12-06 10:52:00
6:09 AM,51.1,50.0,96,29.94,0.8,SW,10.4,-,N/A,,Mist,220,2013-12-06 11:09:00
6:52 AM,51.1,50.0,96,29.94,0.8,SW,6.9,-,N/A,,Mist,220,2013-12-06 11:52:00
7:09 AM,52.0,51.1,97,29.94,1.2,SW,9.2,17.3,0.00,Rain,Light Rain,220,2013-12-06 12:09:00
7:20 AM,52.0,51.1,97,29.93,2.5,SW,11.5,20.7,0.00,,Overcast,220,2013-12-06 12:20:00
7:52 AM,52.0,51.1,97,29.94,1.8,SSW,8.1,-,0.01,Rain,Light Rain,210,2013-12-06 12:52:00
8:12 AM,51.1,51.1,100,29.94,0.5,SW,9.2,-,0.00,Fog-Rain,Light Rain,220,2013-12-06 13:12:00
8:37 AM,51.1,51.1,100,29.95,1.0,SW,8.1,17.3,0.02,Rain,Light Rain,220,2013-12-06 13:37:00
8:52 AM,52.0,51.1,97,29.94,1.0,SW,9.2,-,0.02,,Mist,220,2013-12-06 13:52:00
9:17 AM,52.0,51.1,97,29.94,2.5,SW,9.2,16.1,N/A,,Overcast,230,2013-12-06 14:17:00
9:52 AM,53.1,52.0,96,29.95,2.5,WSW,6.9,-,0.00,Rain,Light Rain,240,2013-12-06 14:52:00
10:12 AM,54.0,53.1,97,29.95,1.2,West,3.5,-,0.00,,Overcast,260,2013-12-06 15:12:00
10:52 AM,55.9,55.0,97,29.95,1.0,WSW,5.8,-,0.00,Rain,Light Rain,240,2013-12-06 15:52:00
11:22 AM,52.0,51.1,97,29.95,2.0,NW,6.9,-,0.01,Rain,Light Rain,320,2013-12-06 16:22:00
11:43 AM,52.0,50.0,93,29.93,4.0,Variable,6.9,-,0.01,,Overcast,0,2013-12-06 16:43:00
11:52 AM,52.0,50.0,93,29.94,6.0,Variable,4.6,-,0.01,,Overcast,0,2013-12-06 16:52:00
12:26 PM,51.1,48.9,92,29.94,9.0,NNW,5.8,-,0.00,,Overcast,330,2013-12-06 17:26:00
12:52 PM,50.0,48.0,93,29.95,5.0,Variable,5.8,-,0.00,,Overcast,0,2013-12-06 17:52:00
1:32 PM,48.0,46.0,93,29.95,6.0,Variable,5.8,-,0.00,Rain,Light Rain,0,2013-12-06 18:32:00
1:52 PM,48.9,46.9,93,29.97,10.0,Variable,3.5,-,0.00,Rain,Light Rain,0,2013-12-06 18:52:00
2:03 PM,48.9,46.0,90,29.97,10.0,Variable,6.9,-,0.00,Rain,Light Rain,0,2013-12-06 19:03:00
2:52 PM,46.9,44.1,90,29.98,10.0,North,8.1,-,0.01,,Overcast,350,2013-12-06 19:52:00
3:11 PM,46.9,44.1,90,29.98,10.0,Variable,6.9,-,N/A,,Overcast,0,2013-12-06 20:11:00
3:52 PM,46.9,44.1,90,30.00,4.0,Variable,5.8,-,0.01,Rain,Light Rain,0,2013-12-06 20:52:00
4:52 PM,46.0,43.0,89,30.02,10.0,Variable,5.8,-,0.00,,Overcast,0,2013-12-06 21:52:00
5:52 PM,45.0,43.0,93,30.01,10.0,NNE,4.6,-,0.02,Rain,Light Rain,20,2013-12-06 22:52:00
6:52 PM,46.0,43.0,89,30.04,10.0,Calm,Calm,-,0.00,,Overcast,0,2013-12-06 23:52:00
7:52 PM,45.0,39.9,82,30.04,10.0,North,4.6,-,0.00,,Overcast,10,2013-12-07 00:52:00
8:52 PM,45.0,41.0,86,30.08,10.0,NNW,4.6,-,0.00,Rain,Light Rain,330,2013-12-07 01:52:00
9:20 PM,39.9,36.0,86,30.07,2.0,North,5.8,-,0.09,Rain,Heavy Rain,10,2013-12-07 02:20:00
9:31 PM,39.9,37.0,89,30.06,4.0,NNE,5.8,-,0.10,Rain,Light Rain,20,2013-12-07 02:31:00
9:52 PM,39.9,37.0,89,30.08,7.0,Variable,3.5,-,0.12,Rain,Rain,0,2013-12-07 02:52:00
10:11 PM,39.9,37.0,89,30.11,6.0,Variable,4.6,-,0.00,Rain,Light Rain,0,2013-12-07 03:11:00
10:19 PM,39.9,37.9,93,30.11,1.8,Variable,5.8,-,0.06,Rain,Heavy Rain,0,2013-12-07 03:19:00
10:28 PM,39.9,37.9,93,30.11,3.0,NNW,10.4,19.6,0.08,Rain,Light Rain,340,2013-12-07 03:28:00
10:40 PM,39.0,37.0,93,30.10,5.0,Variable,5.8,-,0.09,Rain,Light Rain,0,2013-12-07 03:40:00
10:52 PM,39.0,36.0,89,30.11,7.0,North,8.1,-,0.09,Rain,Light Rain,350,2013-12-07 03:52:00
11:52 PM,39.0,37.0,93,30.07,4.0,Variable,5.8,-,0.02,Rain,Rain,0,2013-12-07 04:52:00